Meteo Giornale » Osservazioni meteo Italia » Pisa-S Giusto

ore: 17:15 - Osservazioni Meteo Pisa-S Giusto
Lat. 43° 41' N Lon. 10° 23' E Alt. 2 metri s.l.m.

nuvoloso_temporali Europe/Rome

21 °C

Temporale con Pioggia

Temp. 24 Ore

18 °C

24 °C

Sud/Sud-Ovest

7.4 Km/h

Dew point 20 °C

Umidità 94 %

Visibilità  3 Km

Il sole sorge alle ore 05:46

Il sole tramonta alle ore 20:43

Data e Ora Cielo e Fenomeni T °C DP °C Um. % Pres. hPa Vis. km Vento km/h
Oggi h: 17:15 nuvoloso_temporali Temporale con Pioggia 21 20 94 1008 3 S/SO 7.4
Oggi h: 16:45 nuvoloso_temporali Temporale con Pioggia 23 21 88 1007 2 S/SE 11.1
Oggi h: 16:15 coperto_temporali Temporale 23 21 88 1007 10 O 13
Oggi h: 15:45 coperto_pioggia Pioggia Debole 23 21 88 1008 10 O/NO 11.1
Oggi h: 15:15 molto_nuvoloso Molto Nuvoloso 23 21 88 1009 10 O/NO 13
Oggi h: 14:45 molto_nuvoloso Molto Nuvoloso 23 19 78 1009 10 SE 7.4
Oggi h: 14:15 molto_nuvoloso Molto Nuvoloso 23 19 78 1010 10 E/SE 7.4
Oggi h: 13:45 molto_nuvoloso Molto Nuvoloso 24 19 73 1010 10 E/SE 13
Oggi h: 13:15 nuvoloso Nuvoloso 24 18 69 1010 10 E/SE 11.1
Oggi h: 12:45 nuvoloso Nuvoloso 23 18 73 1010 10 E 11.1
Oggi h: 12:15 molto_nuvoloso Molto Nuvoloso 23 19 78 1010 10 E/SE 13
Oggi h: 11:45 nuvoloso Nuvoloso 22 19 83 1010 10 E/SE 14.8
Oggi h: 11:15 molto_nuvoloso Molto Nuvoloso 21 18 82 1010 10 E/SE 14.8
Oggi h: 10:45 molto_nuvoloso Molto Nuvoloso 21 18 82 1010 10 E/SE 13
Oggi h: 10:15 molto_nuvoloso Molto Nuvoloso 20 18 88 1010 10 E/SE 11.1
Oggi h: 09:45 coperto_pioggia Pioggia Debole 20 18 88 1010 10 E/SE 13
Oggi h: 09:15 molto_nuvoloso Molto Nuvoloso 20 18 88 1010 10 E/SE 13
Oggi h: 08:45 nuvoloso Nuvoloso 19 18 93 1010 10 E/SE 16.7
Oggi h: 08:15 sereno Sereno 18 18 100 1010 10 SE 16.7
Oggi h: 07:45 sereno Sereno 18 18 100 1009 10 E/SE 13
Oggi h: 07:15 sereno Sereno 18 18 100 1010 10 E/SE 11.1
Oggi h: 06:45 nuvoloso Nuvoloso 18 18 100 1010 10 E/SE 7.4
Oggi h: 06:15 molto_nuvoloso Molto Nuvoloso 18 18 100 1010 10 NE 7.4
Oggi h: 05:45 molto_nuvoloso Molto Nuvoloso 18 18 100 1010 10 NE 7.4
Oggi h: 05:15 molto_nuvoloso Molto Nuvoloso 18 18 100 1010 10 NE 7.4
Oggi h: 04:45 molto_nuvoloso Molto Nuvoloso 18 18 100 1010 10 N 5.5
Oggi h: 04:15 coperto_pioggia Pioggia Debole 18 18 100 1010 10 N/NE 7.4
Oggi h: 03:45 coperto_pioggia Pioggia Debole 18 18 100 1010 10 E/SE 13
Oggi h: 03:15 coperto_pioggia Pioggia Debole 18 18 100 1010 10 E/SE 14.8
Oggi h: 02:15 molto_nuvoloso Molto Nuvoloso 18 18 100 1011 10 N 3.7
Oggi h: 01:45 molto_nuvoloso Molto Nuvoloso 18 18 100 1011 10 N 1.8
Oggi h: 01:15 sereno Sereno 18 18 100 1011 10 E/SE 7.4
Oggi h: 00:45 sereno Sereno 18 18 100 1011 10 N 5.5
Oggi h: 00:15 sereno Sereno 18 16 88 1011 10 N 3.7
Ieri h: 23:45 nuvoloso Nuvoloso 18 17 93 1011 10 N 3.7
Ieri h: 23:15 sereno Sereno 19 17 88 1010 10 N 5.5
Ieri h: 22:45 sereno Sereno 19 18 93 1010 10 N 5.5
Ieri h: 22:15 nuvoloso Nuvoloso 20 17 82 1010 10 N 3.7
Ieri h: 21:45 sereno Sereno 20 17 82 1010 10 N 3.7
Ieri h: 21:15 sereno Sereno 20 16 77 1009 10 N 5.5
Ieri h: 20:45 sereno Sereno 21 16 73 1009 10 N 3.7
Ieri h: 20:15 sereno Sereno 21 17 77 1009 10 O/NO 7.4
Ieri h: 19:45 sereno Sereno 22 17 73 1009 10 O/NO 7.4
Ieri h: 19:15 sereno Sereno 23 17 68 1009 10 N 5.5
Ieri h: 18:45 poco_nuvoloso Poco Nuvoloso 23 17 68 1009 10 O/NO 7.4